Weather History for Guymon, OK

Change the Weather History Date:

Sunday, June 22, 2014

  Actual Average Record
Temperature  
Mean Temperature 82 °F 76 °F  
Max Temperature 98 °F 90 °F 98 °F (2012)
Min Temperature 66 °F 62 °F 57 °F (2001)
Degree Days  
Heating Degree Days 0 0  
Month to date heating degree days 5 6  
Since 1 June heating degree days 5 6  
Since 1 July heating degree days 4537 4455  
Cooling Degree Days 17 11  
Month to date cooling degree days 232 183  
Year to date cooling degree days 410 291  
Since 1 June cooling degree days 232 183  
Growing Degree Days 31 (Base 50)    
Moisture  
Dew Point 60 °F    
Average Humidity 59    
Maximum Humidity 93    
Minimum Humidity 24    
Precipitation  
Precipitation T in 0.08 in 0.79 in (2004)
Month to date precipitation 1.64 2.40  
Year to date precipitation 5.03 8.65  
Snow  
Snow 0.00 in - - ()
Month to date snowfall 0.0  
Since 1 June snowfall 0.0  
Since 1 July snowfall 16.2  
Snow Depth 0.00 in    
Sea Level Pressure  
Sea Level Pressure 29.73 in    
Wind  
Wind Speed 13 mph (SSW)    
Max Wind Speed 41 mph    
Max Gust Speed 53 mph    
Visibility 10 miles    
Events Thunderstorm    
T = Trace of Precipitation, MM = Missing Value Source: NWS Daily Summary

Daily Weather History Graph

Daily Weather History Graph

Search for Another Location

Airport:

Trip Planner

Search our weather history database for the weather conditions in past years. The results will help you decide how hot, cold, wet, or windy it might be!

Date:

Astronomy

Jun. 22, 2014 Rise Set
Actual Time 6:27 AM CDT 9:08 PM CDT
Civil Twilight 5:57 AM CDT 9:38 PM CDT
Nautical Twilight 5:18 AM CDT 10:17 PM CDT
Astronomical Twilight 4:36 AM CDT 10:59 PM CDT
Moon 3:11 AM CDT (6/22) 4:56 PM CDT (6/22)
Length of Visible Light 15h 41m
Length of Day
14h 40m
Waning Crescent, 20% of the Moon is Illuminated
Jun 22
Waning Crescent
Jun 27
New
Jul 5
First Quarter
Jul 12
Full
Jul 18
Last Quarter

Hourly Weather History & Observations

Time (CDT) Temp. Heat Index Dew Point Humidity Pressure Visibility Wind Dir Wind Speed Gust Speed Precip Events Conditions
12:53 AM 73.9 °F - 60.1 °F 62% 29.73 in 10.0 mi SSE 6.9 mph - N/A   Clear
1:53 AM 73.0 °F - 61.0 °F 66% 29.77 in 10.0 mi Calm Calm - N/A   Clear
2:53 AM 72.0 °F - 62.1 °F 71% 29.77 in 10.0 mi Calm Calm - N/A   Clear
3:53 AM 69.1 °F - 63.0 °F 81% 29.76 in 10.0 mi SSE 5.8 mph - N/A   Clear
4:53 AM 68.0 °F - 63.0 °F 84% 29.74 in 10.0 mi SSE 9.2 mph - N/A   Clear
5:53 AM 66.9 °F - 64.0 °F 90% 29.75 in 10.0 mi SSE 8.1 mph - N/A   Clear
6:53 AM 66.9 °F - 64.0 °F 90% 29.75 in 10.0 mi SSE 8.1 mph - N/A   Clear
7:53 AM 72.0 °F - 66.0 °F 81% 29.73 in 10.0 mi SSW 15.0 mph - N/A   Clear
8:53 AM 77.0 °F - 66.0 °F 69% 29.73 in 10.0 mi SSW 21.9 mph - N/A   Clear
9:53 AM 81.0 °F 83.0 °F 66.0 °F 60% 29.74 in 10.0 mi SSW 17.3 mph - N/A   Clear
10:53 AM 84.9 °F 87.1 °F 66.0 °F 53% 29.73 in 10.0 mi SW 11.5 mph - N/A   Clear
11:53 AM 87.1 °F 87.0 °F 61.0 °F 41% 29.73 in 10.0 mi WSW 11.5 mph - N/A   Clear
12:53 PM 90.0 °F 90.0 °F 61.0 °F 38% 29.71 in 10.0 mi SSW 12.7 mph 18.4 mph N/A   Partly Cloudy
1:53 PM 91.9 °F 91.5 °F 60.1 °F 34% 29.70 in 10.0 mi West 10.4 mph 20.7 mph N/A   Partly Cloudy
2:53 PM 93.0 °F 92.7 °F 60.1 °F 33% 29.68 in 10.0 mi SW 10.4 mph - N/A   Scattered Clouds
3:53 PM 96.1 °F 95.2 °F 57.9 °F 28% 29.65 in 10.0 mi South 12.7 mph 23.0 mph N/A   Partly Cloudy
4:53 PM 95.0 °F 93.4 °F 55.9 °F 27% 29.62 in 10.0 mi SW 18.4 mph - N/A   Clear
5:53 PM 96.1 °F 94.1 °F 55.0 °F 25% 29.58 in 10.0 mi SSW 16.1 mph 24.2 mph N/A   Clear
6:53 PM 95.0 °F 92.5 °F 53.1 °F 24% 29.59 in 10.0 mi SW 10.4 mph - N/A   Clear
7:53 PM 82.9 °F 82.6 °F 57.9 °F 42% 29.64 in 10.0 mi ESE 18.4 mph 28.8 mph N/A   Clear
8:00 PM 82.0 °F 82.0 °F 57.9 °F 44% 29.79 in 10.0 mi East 18.4 mph 28.8 mph N/A   Clear
8:51 PM 78.8 °F - 53.6 °F 42% 29.86 in 9.0 mi WNW 18.4 mph 28.8 mph N/A   Scattered Clouds
8:53 PM 79.0 °F - 51.1 °F 38% 29.71 in 8.0 mi WNW 17.3 mph 28.8 mph N/A   Scattered Clouds
8:59 PM 79.0 °F - 51.1 °F 38% 29.83 in 6.0 mi NW 24.2 mph 42.6 mph N/A Thunderstorm Haze
9:04 PM 73.9 °F - 55.9 °F 53% 29.81 in 6.0 mi NNW 36.8 mph 52.9 mph N/A Thunderstorm Haze
9:53 PM 68.0 °F - 60.1 °F 76% 29.80 in 10.0 mi NNE 31.1 mph 49.5 mph N/A   Scattered Clouds
10:53 PM 66.9 °F - 57.9 °F 73% 29.82 in 10.0 mi NE 17.3 mph 34.5 mph N/A   Clear
11:53 PM 66.0 °F - 55.9 °F 70% 29.81 in 10.0 mi NE 18.4 mph - N/A   Scattered Clouds